Location: Unspecified
(51.0000°N, 12.0000°E)
Time: 15:10:50
(UTC+01:00)

N. Korean satellite - Pass Details

Date: 20 October 2019
Orbit: 456 x 506 km, 97.2° (Epoch: 20 November)

Event Time Altitude Azimuth Distance (km) Brightness Sun altitude
Rises 06:45:23 0° 19° (NNE) 2,554 10.4 -9.7°
Reaches altitude 10° 06:47:33 10° 28° (NNE) 1,677 9.6 -9.4°
Maximum altitude 06:50:56 37° 97° (E) 774 8.4 -8.9°
Drops below altitude 10° 06:54:20 10° 167° (SSE) 1,689 9.6 -8.3°
Sets 06:56:31 0° 176° (S) 2,574 10.4 -8.0°
